Погода в Новой Бии

Россия / Удмуртская Республика     56°47′55″N   51°41′48″E
В апреле 2022 года жителям России запретили посещать сайт meteo.paraplan.net по решению Генеральной прокуратуры. Аудитория сайта уменьшилась в 10 раз. Владельцы сайта не видят смысла в поддержке погодного сервера в таких условиях. Сайт будет закрыт в октябре.
темп.,
°C
ветер,
м/с
пор.,
м/с
влажн.,
%
обл.,
%
осадки,
мм/ч
давл.,
гПа
погр.,
м
4 октября, вт
вт401:00+11ю614515 0.0 1023442
04:00+8ююв41055100 0.0 1024246
07:00+8ююв41155100 0.0 1024275
10:00+11ююв51245100 0.0 1025465
13:00+12ю51142100 0.0 1026632
16:00+12ю41043100 0.0 1027517
19:00+11ююв51243100 0.0 1027436
22:00+8ююв41048100 0.0 1027242
5 октября, ср
ср501:00+9ююв41144100 0.0 1026323
04:00+8ю51345100 0.0 1026498
07:00+6ююв41079100 1.4 1026494
10:00+7ююв61481100 1.6 1025704
13:00+9ююв51263100 0.0 1023616
16:00+11ююв511525 0.0 1021676
19:00+9ююв51160100 0.0 1021323
22:00+9ююв51372100 0.1 1020479
6 октября, чт
чт601:00+6ююв51187100 1.9 1019489
04:00+7юв41096100 7.3 1016496
07:00+8ю5994100 3.7 1015436
10:00+8ююв4790100 3.7 1014397
13:00+10ю348395 0.3 1013670
16:00+10ю348099 1.2 1013497
19:00+8ююз2593100 0.9 1014202
22:00+8зюз249297 1.3 1014154
7 октября, пт
пт701:00+7зсз4892100 0.1 1015316
04:00+6з3794100 0.1 1016271
07:00+6зюз379124 0.0 1016268
10:00+9зюз47775 0.0 1015482
13:00+11зюз6868100 0.1 10141186
16:00+8юз61176100 0.2 1013753
19:00+7зюз61291100 1.0 1013761
22:00+7з5129497 1.1 1014529
8 октября, сб
сб801:00+8з61388100 0.1 1015694
04:00+9зсз71281100 0.2 1016955
07:00+8зсз61084100 0.1 10191006
10:00+9зсз6108010 0.1 1021682
13:00+12з68644 0.0 10211110
16:00+12зсз58705 0.0 10211074
19:00+7з229126 0.0 102325
22:00+7юз369243 0.0 1023121